Location: Drahobudice
(49.9368°N, 15.0693°E)
Time: 06:20:05
(UTC+00:00)

Daily predictions for brighter satellites

Satellite Brightness Start Highest point End
(mag) Time Altitude Azimuth Time Altitude Azimuth Time Altitude Azimuth
MOS 1 4.5 18:43:35 10° SSE 18:49:15 83° WSW 18:54:58 10° NNW
Genesis I 4.2 18:45:34 10° NW 18:49:16 43° WSW 18:52:57 10° SSE
USA 234 4.0 18:44:22 10° E 18:50:38 51° N 18:56:55 10° WNW
Cosmos 1934 Rocket 4.3 18:46:41 10° SSE 18:52:48 51° E 18:58:56 10° NNE
Terra 4.0 18:51:57 10° ENE 18:53:04 11° NE 18:54:10 10° NE
Cosmos 1980 Rocket 2.4 18:48:04 10° NNW 18:53:47 80° WSW 18:59:25 10° SSE
USA 276 2.1 18:51:07 10° W 18:54:19 80° S 18:57:29 10° ESE
Cosmos 1238 Rocket 3.9 18:52:28 10° SE 18:54:19 16° E 18:56:14 10° NE
X-37B 1.7 18:52:14 10° WSW 18:55:05 31° S 18:57:56 10° ESE
Cosmos 44 4.1 18:52:25 10° NNW 18:57:02 41° NE 19:01:52 10° ESE
Lacrosse 5 1.9 18:52:15 10° WNW 18:57:22 89° NNE 19:02:27 10° SE
CZ-2C R/B 4.1 18:53:18 10° NNE 18:57:40 42° E 19:01:56 10° S
IRIDIUM 104 4.5 18:53:57 10° S 18:59:10 83° W 19:04:26 10° N
Resurs 01 Rocket 1.9 18:58:27 10° SE 19:02:45 53° ENE 19:07:05 10° N
Cosmos 1833 Rocket 3.2 18:58:36 10° SW 19:04:12 66° WNW 19:09:50 10° NNE
Cosmos 1697 Rocket 4.1 19:00:48 10° NW 19:05:56 38° WSW 19:11:03 10° S
GP-B 3.8 19:02:20 10° NNE 19:06:27 35° E 19:10:31 10° SSE
MOS 1 Rocket 4.4 19:01:52 10° N 19:07:12 57° WNW 19:12:20 10° SSW
USA 238 DEB 3.7 19:01:07 10° SSW 19:07:35 59° SE 19:14:20 10° NE
SPOT 3 Rocket 3.6 19:02:27 10° SSE 19:07:40 82° ENE 19:12:52 10° NNW
USA 238 3.7 19:01:14 10° SSW 19:07:41 58° SE 19:14:26 10° NE
Cosmos 1867 3.6 19:04:12 10° SW 19:09:39 86° SE 19:15:09 10° NE
Cosmos 1933 Rocket 4.5 19:07:05 10° SSE 19:10:57 30° E 19:14:51 10° NNE
Cosmos 1666 Rocket 3.5 19:06:58 10° S 19:11:18 86° E 19:15:41 10° N
CENTAUR R/B 2.9 19:05:53 10° S 19:11:20 39° ESE 19:17:42 10° NE
DMSP B5D2-2 4.1 19:08:22 10° NNE 19:13:38 88° ESE 19:18:54 10° SSW
Cosmos 1954 Rocket 4.0 19:08:54 10° SSW 19:14:12 73° ESE 19:19:31 10° NNE
Spot 2 Rocket 4.2 19:11:05 10° SE 19:15:45 39° ENE 19:20:29 10° N
Intercosmos 25 4.5 19:14:44 10° NNW 19:18:20 39° W 19:21:20 10° SSW
Ariane Rocket 4.3 19:14:00 10° SSW 19:18:44 39° W 19:23:30 10° NNW
Cosmos 1821 Rocket 4.4 19:12:45 10° SSW 19:18:55 70° WNW 19:25:13 10° N
Cosmos 405 Rocket 3.3 19:15:47 10° SSE 19:19:10 34° E 19:22:37 10° NNE
Okean 1-7 4.0 19:18:06 10° N 19:21:58 31° ENE 19:25:00 14° SE
Cosmos 2333 Rocket 4.0 19:24:01 10° NNW 19:28:19 21° NE 19:32:35 10° E
Cosmos 1763 Rocket 3.6 19:23:14 10° NNW 19:28:35 69° ENE 19:33:12 14° SSE
Cosmos 1437 Rocket 3.3 19:25:48 10° N 19:29:22 38° ENE 19:31:55 17° SE
Cosmos 1140 Rocket 4.3 19:25:33 10° SW 19:30:43 57° WNW 19:35:55 10° NNE
Resurs 1-3 4.2 19:27:23 10° S 19:31:42 57° W 19:36:03 10° NNW
FALCON 9 DEB 3.7 19:28:21 10° W 19:31:50 59° NNW 19:35:18 10° ENE
Cosmos 1703 Rocket 4.0 19:27:55 10° N 19:32:04 42° ENE 19:35:10 16° SE
H-2A R/B 3.8 19:30:17 10° NNE 19:34:14 42° E 19:38:11 10° S
OBJECT-B 2.2 19:31:14 10° SSW 19:34:21 38° W 19:37:28 10° NNW
Cosmos 2084 Rocket 3.7 19:32:16 10° SSW 19:36:15 44° SE 19:40:20 10° NE
Cosmos 1633 Rocket 3.6 19:33:49 10° SSW 19:38:12 62° WNW 19:42:36 10° N
Cosmos 1184 Rocket 3.2 19:35:46 10° SSW 19:39:02 63° WNW 19:42:20 10° N
Landsat 7 4.0 19:36:27 15° SSE 19:40:19 60° ENE 19:45:01 10° N
Cosmos 921 Rocket 3.5 19:36:49 10° NNW 19:40:56 54° WSW 19:44:59 10° S
SPOT 5 3.8 19:38:25 17° ESE 19:40:59 29° ENE 19:44:49 10° N
Cosmos 2123 Rocket 4.4 19:35:40 10° NNW 19:41:50 64° W 19:48:01 10° S
MetOp-B 4.1 19:40:52 12° SSE 19:45:55 87° ENE 19:51:20 10° NNW
Meteor 1-19 Rocket 4.1 19:45:01 10° N 19:50:29 77° ENE 19:54:58 16° SSE
Cosmos 1605 Rocket 3.9 19:46:57 10° S 19:53:03 88° ESE 19:59:11 10° N
Okean 1 3.3 19:49:01 10° N 19:53:05 89° WSW 19:56:08 17° S
CZ-2C R/B 3.9 19:48:14 10° N 19:53:08 43° WNW 19:58:03 10° SW
ERBS 4.2 19:51:29 10° NW 19:54:19 25° N 19:57:08 10° ENE
Cosmos 2100 Rocket 4.4 19:52:15 17° SSE 19:56:28 41° E 20:02:10 10° NNE
USA 267 3.6 19:50:28 10° ENE 19:56:30 38° SE 20:02:30 10° SSW
NOSS 3-2 (A) 3.6 19:51:55 10° SW 19:57:43 77° NW 20:04:29 10° NE
Cosmos 2219 Rocket 3.7 19:54:00 10° NNW 19:58:46 26° NE 20:02:41 13° E
Meteor 2-4 Rocket 3.8 19:53:34 10° N 19:59:07 58° ENE 20:02:35 22° SE
Lacrosse 4 Rocket 3.3 20:01:22 15° E 20:01:22 15° E 20:02:47 10° ENE
Cosmos 2173 Rocket 4.4 19:56:36 19° SSE 20:00:34 41° E 20:06:13 10° NNE
Cosmos 540 Rocket 3.5 19:56:20 10° NNW 20:01:31 68° ENE 20:04:39 24° SE
SL-16 R/B 2.3 19:56:45 10° NNW 20:02:27 77° WSW 20:06:27 20° SSE
SL-4 R/B 2.1 20:00:43 10° W 20:04:39 66° N 20:07:25 17° E
BREEZE-M DEB (TANK) 2.7 20:02:23 10° W 20:05:17 86° S 20:13:37 10° E
Cosmos 2242 Rocket 3.8 20:01:18 10° NNW 20:05:42 68° W 20:09:07 16° S
SL-27 R/B 2.2 20:04:28 19° S 20:06:42 67° ESE 20:10:00 10° NNE
Cosmos 1470 Rocket 4.3 20:03:44 10° SSW 20:08:02 54° WNW 20:12:20 10° N
NOSS 3-2 (C) 3.4 20:02:32 10° SW 20:08:20 86° SE 20:15:03 10° NE
BREEZE-M DEB (TANK) 1.6 20:10:25 10° W 20:12:31 59° SW 20:12:31 59° SW
Cosmos 2082 Rocket 3.8 20:07:44 10° WSW 20:13:01 38° NW 20:18:18 10° NNE
Cosmos 1459 Rocket 4.3 20:09:17 20° SSE 20:13:28 51° E 20:19:37 10° NNE
Cosmos 1242 Rocket 4.2 20:13:27 10° NNE 20:16:19 21° ENE 20:16:53 20° E
Meteor 1-13 Rocket 4.5 20:12:50 10° N 20:18:15 52° ENE 20:20:56 28° SE
ERS-1 Rocket 2.9 20:16:14 27° SSE 20:19:00 74° ENE 20:24:02 10° NNW
SAR-Lupe-2 4.1 20:16:06 10° NNE 20:19:29 38° E 20:19:45 37° ESE
Cosmos 2322 Rocket 2.4 20:14:04 10° NNW 20:19:46 70° WSW 20:23:15 24° SSE
Meteor 1-14 Rocket 4.3 20:13:57 10° S 20:19:50 89° ESE 20:25:53 10° NNE
Cosmos 1850 Rocket 4.2 20:19:49 10° SSW 20:25:06 75° WNW 20:30:24 10° NNE
Cosmos 2221 Rocket 4.0 20:22:20 10° N 20:26:42 48° ENE 20:28:09 35° SE
Cosmos 1500 3.0 20:25:36 40° SSE 20:26:46 68° E 20:30:31 10° NNE
SPOT 1/Viking Rocket 3.8 20:23:32 21° S 20:27:00 69° WSW 20:32:15 10° NNW
Cosmos 841 Rocket 3.6 20:21:54 10° NNW 20:27:09 76° WSW 20:29:56 28° SSE
Cosmos 1536 3.9 20:27:23 27° E 20:27:23 27° E 20:30:43 10° NNE
Cosmos 2360 Rocket 2.2 20:23:18 10° NNW 20:29:01 82° ENE 20:31:48 32° SE
Terra 2.0 20:27:56 34° SE 20:29:52 60° ENE 20:34:34 10° N
USA 276 3.4 20:27:37 10° W 20:30:10 27° SW 20:30:10 27° SW
Okean 3 3.5 20:26:28 10° N 20:30:46 64° ENE 20:32:07 40° SE
X-37B 2.9 20:29:06 10° WSW 20:30:22 15° SW 20:30:22 15° SW
IGS 5A 4.4 20:29:39 19° SSW 20:32:17 42° W 20:36:17 10° NNW
Cosmos 2237 4.2 20:27:26 10° NNW 20:33:11 87° WSW 20:35:58 32° SSE
USA 234 3.3 20:29:00 23° ESE 20:33:21 83° NNE 20:39:55 10° WNW
ATLAS 3B R/B 2.7 20:27:03 10° SSW 20:33:25 54° ESE 20:39:52 10° NE
Cosmos 1238 Rocket 4.4 20:31:13 10° SW 20:33:41 24° WNW 20:36:16 10° NNW
Cosmos 1666 3.2 20:37:36 40° E 20:37:36 40° E 20:41:07 10° NNE
COSMOS 2487 4.0 20:39:02 23° ENE 20:39:02 23° ENE 20:40:49 10° NE
Cosmos 44 4.2 20:33:40 10° NW 20:38:19 42° WSW 20:40:36 27° S
Resurs 01 Rocket 3.9 20:36:18 10° SW 20:39:33 20° W 20:42:50 10° NW
Iridium 4 Rocket 3.0 20:38:44 45° SE 20:39:47 62° E 20:43:54 10° N
Lacrosse 5 3.5 20:35:50 10° WNW 20:39:49 23° SW 20:41:50 18° SSW
CARTOSAT-1 3.7 20:40:31 34° S 20:42:16 68° WSW 20:46:36 10° NNW
Cosmos 2061 Rocket 3.9 20:50:45 33° SSE 20:53:39 68° E 20:59:48 10° NNE
Cosmos 1814 Rocket 4.4 20:49:39 10° NNW 20:54:45 56° WSW 20:56:56 33° S
COSMOS 2428 3.2 20:49:56 10° NNW 20:55:31 50° NE 20:57:48 33° ESE
Cosmos 1802 Rocket 4.0 20:54:58 27° S 20:58:40 86° E 21:05:01 10° N
Cosmos 1743 4.4 21:00:17 22° ENE 21:00:17 22° ENE 21:02:36 10° NE
Cosmos 2237 Rocket 3.7 20:54:58 10° NNW 20:59:46 27° NE 21:02:46 18° E
Cosmos 1869 Rocket 4.2 20:57:44 24° SSW 21:00:15 56° WNW 21:04:41 10° N
CENTAUR R/B 3.2 20:55:37 10° WSW 21:01:44 59° NW 21:09:03 10° NE
Cosmos 44 Rocket 3.6 20:57:44 10° NW 21:02:41 62° NE 21:04:15 41° ESE
Cosmos 1816 Rocket 4.4 21:00:22 10° N 21:06:40 82° E 21:09:03 40° SSE
FALCON 9 DEB 3.8 21:05:43 10° WNW 21:09:10 53° N 21:09:36 49° NE
Cosmos 1271 Rocket 3.5 21:05:56 10° N 21:09:24 39° ENE 21:09:24 39° ENE
Cosmos 1674 Rocket 3.5 21:09:12 10° N 21:13:32 66° ENE 21:13:54 63° ESE
Cosmos 2333 Rocket 2.2 21:07:46 10° NNW 21:13:35 77° ENE 21:15:19 46° SE
ATLAS 5 CENTAUR R/B 2.2 21:11:09 10° NW 21:13:59 69° SW 21:14:58 52° SSE
SPOT 5 3.8 21:17:39 29° SW 21:18:59 35° W 21:23:06 10° NNW
Cosmos 1066 Rocket 4.1 21:14:15 10° NNW 21:19:58 88° WSW 21:21:30 50° S
Cosmos 1486 Rocket 3.9 21:22:06 57° SE 21:22:46 62° ESE 21:27:55 10° NNE
BREEZE-M DEB (TANK) 4.3 21:11:42 10° W 21:27:08 65° SSW 21:28:57 44° SE
CRYOSAT 2 4.2 21:24:42 10° N 21:29:37 76° E 21:30:14 65° SSE
Cosmos 1733 Rocket 3.0 21:29:41 68° SW 21:30:11 80° W 21:34:39 10° N
Cosmos 1356 4.3 21:30:29 44° WNW 21:30:29 44° WNW 21:33:46 10° N
ERBS 3.3 21:27:44 10° NW 21:30:13 45° NNW 21:30:13 45° NNW
Meteor 1-11 Rocket 4.0 21:31:46 32° SSW 21:34:25 65° WNW 21:40:14 10° N
Cosmos 489 Rocket 4.4 21:28:36 10° NNW 21:34:58 90° ENE 21:36:44 51° SSE
Tsikada Rocket 4.1 21:30:19 10° NNW 21:36:38 71° W 21:38:46 43° SSW
Cosmos 968 Rocket 3.3 21:37:25 66° SSE 21:37:53 71° ESE 21:43:01 10° NNE
Lacrosse 4 Rocket 1.6 21:37:37 56° WSW 21:38:19 68° NW 21:42:29 10° NNE
Cosmos 2227 Rocket 4.1 21:40:11 15° E 21:40:11 15° E 21:42:21 10° ENE
ALOS 2 3.5 21:39:37 37° ENE 21:39:48 37° ENE 21:43:51 10° N
USA 267 3.2 21:33:22 10° ENE 21:39:56 84° NNW 21:46:30 10° WSW
Cosmos 2219 Rocket 2.2 21:37:37 10° NNW 21:43:19 75° WSW 21:44:23 58° S
SL-4 R/B 2.9 21:40:35 10° WNW 21:42:59 36° W 21:42:59 36° W
SL-16 R/B 4.5 21:42:55 10° WNW 21:45:34 14° W 21:48:13 10° SW
Cosmos 1242 Rocket 4.0 21:47:57 10° NNW 21:50:53 32° W 21:50:53 32° W
EO 1 Del DPAF 4.5 21:50:49 10° NNE 21:53:13 33° NE 21:53:13 33° NE
Cosmos 2322 4.3 21:51:12 10° NW 21:56:32 43° WSW 21:57:25 40° SW
Cosmos 1782 Rocket 4.4 21:58:07 40° ENE 21:58:07 40° ENE 22:01:31 10° NNE
Spot 4 3.7 21:58:19 77° SSW 21:58:35 81° WSW 22:03:27 10° NNW
Cosmos 1842 3.9 21:58:41 10° N 22:01:52 52° NNE 22:01:52 52° NNE
Cosmos 1536 4.3 22:03:05 28° W 22:03:42 29° WNW 22:07:14 10° N
Cosmos 1908 Rocket 3.6 22:04:49 76° N 22:04:49 76° N 22:08:51 10° N
Cosmos 1378 Rocket 4.1 22:00:34 10° NNW 22:04:51 49° W 22:04:51 49° W
Terra 3.7 22:06:49 18° WSW 22:08:00 20° W 22:11:29 10° NW
Cosmos 2344 4.4 21:59:38 10° NW 22:08:42 74° NE 22:17:17 23° SE
Cosmos 2360 Rocket 4.0 22:08:29 10° WNW 22:12:18 19° W 22:13:33 17° WSW
COSMOS 2487 4.5 22:12:29 22° WNW 22:12:50 23° WNW 22:15:39 10° N
SL-16 R/B 3.4 22:10:08 10° NNW 22:15:22 35° NE 22:17:41 26° E
USA 234 3.8 22:16:20 39° SW 22:16:45 39° SW 22:22:51 10° WNW
MOS 1-B Rocket 4.2 22:15:52 10° N 22:21:23 58° WNW 22:23:10 40° SW
ATLAS 3B R/B 3.5 22:17:55 10° WSW 22:24:15 47° NW 22:30:44 10° NE
Cosmos 1354 Rocket 3.9 22:23:57 72° SW 22:24:29 83° WNW 22:29:51 10° NNE
Meteor 1-24 4.5 22:20:30 10° NNW 22:26:04 82° W 22:26:32 74° SSW
Cosmos 1975 Rocket 3.2 22:23:13 10° NNW 22:27:17 71° NW 22:27:17 71° NW
Cosmos 1544 4.3 22:30:39 40° NNW 22:30:39 40° NNW 22:33:18 10° N
SL-24 DEB 4.3 22:25:11 10° N 22:29:43 75° NE 22:29:43 75° NE
Cosmos 2297 Rocket 2.8 22:32:12 43° E 22:32:12 43° E 22:37:07 10° NE
Meteor 1-21 4.1 22:26:34 10° NNW 22:32:23 79° W 22:33:00 70° SSW
Thor Agena Rocket 3.7 22:29:20 10° N 22:34:23 64° WNW 22:35:03 58° WSW
Cosmos 1743 4.2 22:35:21 31° WNW 22:35:21 31° WNW 22:38:37 10° N
Okean 2 4.3 22:31:13 10° NNW 22:34:30 43° WNW 22:34:30 43° WNW
Cosmos 1975 3.5 22:36:14 52° NNW 22:36:14 52° NNW 22:39:32 10° N
Meteor 2-9 Rocket 4.1 22:35:06 73° SSW 22:35:42 89° WNW 22:41:32 10° NNE
Nimbus 7 Rocket 4.2 22:30:24 10° NNE 22:36:19 85° ESE 22:37:08 68° S
Cosmos 1980 3.6 22:30:56 10° NNW 22:36:37 76° WSW 22:36:58 73° SSW
Cosmos 1777 Rocket 4.3 22:39:10 55° E 22:39:10 55° E 22:44:02 10° NNE
COSMOS 2428 3.7 22:34:32 10° NW 22:39:37 33° WSW 22:39:48 33° WSW
Timation 2 Rocket 3.7 22:39:51 69° S 22:40:33 79° ESE 22:46:34 10° NNE
Cosmos 1025 Rocket 3.6 22:38:54 10° N 22:42:31 52° NE 22:42:31 52° NE
Cosmos 2237 Rocket 2.1 22:38:44 10° NNW 22:44:23 71° WSW 22:44:34 70° SW
Cosmos 2219 3.2 22:46:31 63° ESE 22:46:31 63° ESE 22:52:01 10° NE
SJ 16-02 3.4 22:47:38 18° ENE 22:47:38 18° ENE 22:49:39 10° NE
Cosmos 1464 Rocket 3.9 22:46:12 64° SSW 22:47:14 84° W 22:53:27 10° N
NOSS 0 Rocket 4.3 22:45:32 10° NW 22:51:28 47° WSW 22:51:50 46° WSW
Okean 2 Rocket 3.5 22:53:44 58° NE 22:53:44 58° NE 22:57:34 10° NNE
Nadezhda 4 Rocket 3.8 22:47:41 10° N 22:54:00 86° W 22:54:56 67° S
Cosmos 2333 Rocket 3.9 22:53:05 10° NW 22:57:12 21° W 22:57:19 21° WSW
Cosmos 1674 4.3 22:54:27 10° N 22:57:04 29° NE 22:57:04 29° NE
CZ-2D R/B 4.4 23:01:39 10° ENE 23:03:43 12° E 23:05:05 11° E
Cosmos 923 Rocket 4.2 23:01:48 10° NNW 23:07:07 64° ENE 23:07:42 59° E
Sich 1 Rocket 4.2 23:15:13 48° NW 23:15:13 48° NW 23:19:06 10° N
DNEPR-1 R/B 4.5 23:09:50 10° NW 23:14:43 48° W 23:14:43 48° W
Cosmos 1092 Rocket 3.8 23:09:31 10° N 23:15:47 88° ENE 23:16:44 67° SSE
ALOS 2 4.2 23:17:00 26° WNW 23:17:00 26° WNW 23:20:00 10° NW
NOSS 3-1 (C) 4.3 23:16:43 31° ESE 23:16:43 31° ESE 23:21:43 10° NE
Helios 1A 3.7 23:18:09 47° NW 23:18:09 47° NW 23:21:26 10° NNW
Lacrosse 4 Rocket 4.2 23:15:18 10° WNW 23:17:46 15° NNW 23:20:14 10° N
Cosmos 1626 4.1 23:15:52 10° NNE 23:18:35 24° ENE 23:18:35 24° ENE
Cosmos 2034 Rocket 4.1 23:19:27 56° SW 23:20:37 68° WNW 23:26:59 10° N
YAOGAN 11 4.5 23:22:19 60° WNW 23:22:19 60° WNW 23:26:19 10° NNW
Cosmos 2227 Rocket 2.0 23:22:00 78° S 23:22:22 84° ESE 23:28:05 10° NNE
USA 267 4.0 23:16:23 10° ENE 23:22:40 51° N 23:28:56 10° W
Cosmos 1707 4.2 23:19:17 10° NNW 23:21:46 31° NW 23:21:46 31° NW
Cosmos 1461 4.0 23:24:34 39° ENE 23:24:34 39° ENE 23:27:48 10° NE
Cosmos 2151 Rocket 3.8 23:26:48 66° N 23:26:48 66° N 23:30:38 10° N
Cosmos 2219 Rocket 4.3 23:23:45 10° WNW 23:26:05 13° W 23:26:05 13° W
Meteor 1-12 Rocket 4.4 23:28:42 61° SW 23:29:36 71° WNW 23:35:39 10° N
Cosmos 1536 Rocket 4.2 23:26:11 10° NNW 23:29:39 50° NW 23:29:39 50° NW
Resurs 1-4 Rocket 3.8 23:30:34 10° NE 23:34:29 21° E 23:35:32 20° ESE
Meteor 2-5 Rocket 3.8 23:30:22 10° N 23:35:57 65° ENE 23:36:53 56° ESE
Cosmos 1805 4.1 23:45:52 48° NE 23:45:52 48° NE 23:48:51 10° NNE
Cosmos 158 Rocket 3.9 23:40:58 10° NNW 23:46:22 82° WSW 23:46:39 79° SSW
Cosmos 1607 4.2 23:41:12 10° NW 23:47:23 50° WSW 23:47:26 50° WSW
Cosmos 2082 3.5 23:48:47 73° S 23:49:17 80° ESE 23:54:55 10° NNE
Cosmos 1937 Rocket 4.4 23:49:29 35° ESE 23:49:53 36° ESE 23:54:42 10° NE
Cosmos 1375 Rocket 4.5 23:48:19 55° SW 23:49:54 86° NW 23:56:34 10° NE
Cosmos 990 Rocket 4.3 23:50:28 51° ESE 23:50:36 51° ESE 23:55:37 10° NNE
Helios 1B rocket 2.7 23:50:47 10° NNE 23:54:18 64° NNE 23:54:18 64° NNE
PSLV R/B 3.9 23:50:21 10° N 23:55:03 67° WNW 23:55:06 67° WNW
